Dewpoint
-5 0 1 -1 -5 -5 -3 -3 -2 -3 -4 -2 1 1 3 3 10 11 13 14 14 14 13 14 13 13 13 13 14 14 12 11 12 12 14 15 15 15 14 14 15 13 13 13
-1 2 -2 -5 -5 -5 -4 -3 -2 -3 -4 -5 -1 6 7 7 8 9 11 12 13 14 14 14 13 13 13 13 13 14 13 13 12 12 14 15 15 15 15 15 15 13 13 12
1 -3 -7 -6 -6 -4 -4 -3 -3 -4 -4 -5 -5 2 9 8 9 10 10 10 10 12 13 14 14 14 14 13 13 13 13 13 13 12 13 15 15 14 14 14 14 15 14 14
-5 -6 -6 -6 -6 -6 -3 -5 -5 -4 -4 -3 -4 -3 10 11 10 11 11 11 11 7 12 13 14 12 13 13 13 13 14 13 13 13 13 14 14 15 14 14 14 15 15 14
-6 -6 -5 -4 -5 -6 -5 -8 -7 -6 -5 -5 -5 4 10 11 12 11 11 12 12 12 11 11 13 12 11 12 13 13 14 14 13 13 13 14 14 14 14 14 14 14 15 14
-6 -7 -7 -7 -6 -7 -7 -6 -4 -5 -5 0 9 2 11 12 12 11 10 12 13 14 13 12 12 13 11 12 12 13 13 14 14 13 14 14 14 14 14 14 14 14 14 14
-4 -5 -7 -7 -5 -6 -5 -4 -1 -3 -3 -1 1 9 12 11 10 10 10 12 13 14 14 13 13 14 14 13 12 12 13 13 14 14 14 14 15 15 14 15 14 14 14 14
-1 1 -3 -4 -4 -2 -3 -4 -1 2 0 -1 0 11 12 9 9 9 10 11 13 14 15 14 13 14 14 13 13 13 12 13 13 14 14 14 14 15 15 15 15 15 14 14
-0 1 -1 -1 -4 -3 -3 0 -5 -3 -3 -1 3 10 9 9 9 9 10 11 12 13 15 15 15 15 14 15 14 13 14 14 14 14 14 14 14 14 14 14 15 14 15 15
-2 1 -0 0 0 -1 -2 -4 2 2 7 6 8 14 12 12 11 10 10 11 12 12 14 15 15 15 15 15 15 15 14 15 15 15 15 15 14 14 14 14 15 15 14 15
-4 -1 1 1 3 3 3 4 3 2 4 7 7 11 12 11 11 11 10 11 12 12 13 14 15 15 15 15 15 15 15 15 15 15 15 15 15 14 15 14 14 14 14 15
-1 1 5 3 1 2 3 4 4 5 8 6 7 12 10 10 10 10 10 11 12 13 12 12 13 15 16 16 15 15 15 15 15 15 15 15 16 16 16 15 15 15 14 14
1 3 5 4 2 1 5 7 3 3 4 8 6 11 11 9 9 9 10 10 10 11 12 12 12 11 11 15 15 15 15 14 13 12 11 13 13 15 17 17 16 16 15 15
2 3 5 5 5 4 6 9 9 3 4 6 6 13 11 10 9 9 9 10 10 10 10 11 11 10 9 10 12 14 15 14 13 12 10 12 12 11 12 12 12 11 12 15
1 5 5 6 5 8 10 10 10 8 8 8 11 11 11 8 8 8 8 9 9 9 9 10 9 9 8 9 10 11 12 12 12 12 11 12 12 12 11 11 10 10 10 9
-1 5 3 6 7 8 9 10 10 10 11 11 10 10 7 7 7 7 7 9 9 9 9 9 8 6 7 7 8 9 11 12 12 12 11 10 9 9 10 10 9 9 9 9
1 2 2 5 5 4 5 7 8 9 10 9 8 8 7 6 7 7 8 8 9 9 9 9 9 6 6 6 7 7 8 8 10 10 12 12 11 11 11 9 9 8 8 8
2 3 2 5 7 6 4 4 7 7 7 7 8 7 8 8 8 7 7 8 9 8 8 7 8 9 6 5 6 7 7 7 8 9 10 10 11 11 10 10 12 10 9 8
-0 3 4 4 3 5 5 8 7 6 5 7 7 7 7 7 7 5 6 6 7 7 7 8 8 8 9 6 6 6 7 7 8 8 9 10 9 10 11 11 12 12 9 12
-0 3 2 4 3 3 6 5 6 4 7 7 7 7 6 6 5 1 4 6 7 7 8 8 8 8 8 9 9 6 6 7 7 8 8 9 9 9 10 10 10 12 12 15
3 4 3 4 3 4 5 6 5 8 6 7 7 6 6 6 5 5 7 7 7 8 8 8 7 8 8 9 9 8 7 7 7 7 8 10 10 9 9 10 10 12 12 12
3 4 4 6 6 5 6 6 7 7 7 7 7 7 6 6 6 7 7 8 8 8 7 7 7 8 8 8 8 8 7 7 8 8 7 8 10 8 8 9 10 11 13 11
4 3 4 3 4 6 7 6 7 6 7 7 7 6 6 6 7 8 7 8 8 7 7 7 8 8 8 8 7 7 8 7 7 8 7 7 9 8 8 8 11 11 11 11
7 6 6 7 7 6 6 7 7 7 8 7 6 5 7 7 7 6 6 7 7 7 6 7 7 7 7 7 7 7 8 8 7 7 7 7 7 8 8 8 9 11 11 11
6 6 8 7 7 7 7 7 8 8 7 5 3 6 6 6 6 6 6 6 6 6 6 6 6 6 6 7 7 7 8 8 8 7 7 7 7 8 8 6 8 8 11 11
6 7 6 5 6 7 7 7 7 7 5 3 5 4 3 4 4 5 5 6 6 6 6 6 5 5 6 7 7 8 9 9 9 8 8 10 9 9 9 7 6 6 7 11
Wind_Speed
3 4 7 5 4 2 4 6 8 7 4 3 10 14 20 21 9 12 11 10 18 25 19 22 26 28 29 30 30 28 26 27 25 25 26 23 21 20 19 19 17 15 16 14
4 8 6 2 2 4 5 8 6 10 5 3 10 16 17 27 20 14 10 12 19 21 18 20 25 27 30 31 32 31 29 28 27 25 27 26 22 21 20 19 17 16 16 15
9 2 4 3 4 3 6 6 3 4 7 7 5 4 20 21 22 24 22 18 13 23 24 22 25 27 27 32 33 34 32 31 30 27 27 27 23 23 22 21 21 18 18 15
3 2 6 7 7 7 6 5 6 4 2 5 5 2 20 19 17 28 30 28 24 11 23 23 25 28 28 29 29 31 34 34 31 30 29 29 27 26 24 21 19 17 18 17
1 3 5 6 5 6 4 2 1 2 1 2 7 3 11 14 18 24 29 31 28 19 11 20 25 30 28 25 26 27 30 33 33 32 30 29 30 27 25 20 19 19 18 20
7 2 4 4 3 7 2 2 1 2 1 4 10 1 13 13 18 21 27 29 28 25 15 11 20 21 25 24 25 25 27 29 33 33 31 31 29 29 26 22 19 19 21 21
3 4 3 4 4 3 5 4 3 1 2 4 1 8 4 14 15 18 22 26 28 26 25 8 9 14 19 24 25 25 25 26 28 31 31 31 30 29 28 25 23 21 22 24
3 4 2 2 3 3 6 3 1 2 3 3 1 5 6 13 17 21 22 23 26 30 28 23 2 8 12 19 23 25 23 25 25 26 26 25 28 30 30 29 29 27 26 24
3 2 3 9 2 3 5 3 2 5 1 2 2 3 5 14 18 25 28 32 36 32 29 25 14 5 8 13 18 20 22 21 24 24 24 24 24 27 29 28 30 30 31 29
2 2 4 3 2 13 2 7 2 1 2 2 3 1 1 12 16 18 25 29 29 30 28 26 19 10 5 7 11 13 17 17 18 22 24 25 26 26 28 30 31 32 30 28
6 3 2 1 7 3 1 1 5 3 3 1 3 3 2 5 9 13 18 20 23 26 27 24 22 16 7 1 3 8 10 10 11 12 15 18 22 24 28 30 30 29 31 31
3 2 2 4 3 3 3 3 2 3 3 2 3 4 5 4 8 11 16 17 17 18 22 24 24 22 15 8 1 5 7 9 8 7 8 10 12 16 19 24 28 29 27 29
7 1 4 4 4 2 3 4 3 4 1 2 3 4 6 5 5 8 12 16 18 18 19 19 20 24 21 11 12 12 16 5 7 4 5 12 14 14 15 18 21 25 26 26
5 3 2 3 3 3 5 3 2 3 3 1 3 9 7 2 5 8 11 13 14 15 17 18 19 19 20 16 13 13 16 21 21 20 24 11 8 9 14 14 14 15 16 21
1 3 4 6 4 5 5 3 0 2 2 4 5 6 3 4 8 10 12 11 13 16 17 18 19 19 19 17 15 14 15 17 14 18 25 24 26 26 19 24 25 26 27 23
2 4 4 3 6 6 5 4 6 7 7 6 4 4 1 3 7 10 14 13 12 14 16 18 21 20 20 20 17 15 13 12 13 16 16 20 21 20 20 29 30 27 28 26
2 7 4 4 6 2 4 5 3 3 2 2 4 2 2 4 9 12 15 16 13 17 21 21 21 23 23 21 21 20 17 15 13 14 13 14 18 21 23 21 21 23 27 27
5 6 2 3 5 5 4 1 2 1 3 3 2 3 3 6 12 17 17 14 15 22 25 25 23 23 24 23 22 21 19 18 16 13 13 14 17 20 23 23 21 19 25 27
0 4 4 4 5 1 6 6 6 6 3 7 5 5 5 8 16 16 5 13 19 23 23 24 24 23 23 25 24 23 22 19 19 15 15 14 16 19 21 21 21 24 24 25
6 5 1 3 3 3 3 8 4 6 5 9 6 5 8 9 8 10 16 22 24 25 25 23 24 24 21 20 19 21 23 22 18 18 17 16 15 17 20 20 24 22 22 20
3 3 4 4 4 1 7 9 9 4 2 9 3 6 8 9 14 22 24 24 23 21 24 23 21 22 20 18 18 19 21 23 22 18 18 16 13 15 18 19 23 22 19 24
3 5 3 3 3 6 13 7 5 5 5 4 3 6 11 15 19 21 23 21 21 21 23 21 21 21 19 18 18 21 23 23 24 23 20 17 15 14 16 17 18 17 20 24
3 1 1 3 1 4 14 3 7 6 5 4 3 8 12 17 19 20 21 22 22 20 20 20 21 23 21 19 20 22 23 23 24 23 22 19 17 12 11 15 16 15 17 20
2 2 2 4 5 7 8 7 6 4 4 1 5 10 13 15 17 19 20 22 23 21 22 22 24 24 25 25 25 24 23 22 22 22 21 20 17 13 11 11 10 10 12 16
1 8 5 1 4 3 8 9 9 6 3 3 8 10 11 13 15 18 21 23 24 22 22 23 24 25 26 25 24 22 20 18 18 18 18 18 15 15 12 11 8 10 9 11
8 5 5 4 12 5 4 15 11 6 3 5 7 8 10 12 16 17 19 21 22 23 23 24 24 25 25 21 21 17 14 14 16 16 13 13 14 15 15 13 11 9 11 9
Wind_Direction
39 246 265 308 269 297 296 289 294 294 285 278 45 36 15 1 258 284 285 252 230 219 221 221 223 224 222 222 225 222 217 217 213 213 210 210 210 211 212 213 218 221 216 226
196 247 285 211 229 266 277 290 286 284 238 282 89 50 44 41 38 9 311 269 249 250 238 228 230 227 228 229 226 225 226 220 217 217 216 219 220 218 220 225 221 219 219 232
222 169 130 297 293 242 241 241 280 294 324 92 330 79 23 20 33 26 16 4 315 253 239 228 231 232 230 230 230 227 225 226 222 222 220 223 228 227 223 224 224 229 228 236
276 229 246 268 253 213 307 211 273 282 302 344 342 64 26 358 16 19 10 5 355 280 245 232 228 239 238 237 236 232 229 225 226 224 226 226 228 227 228 230 230 232 236 234
182 209 212 244 249 190 283 353 342 11 36 274 29 74 10 10 4 5 3 2 3 360 267 237 227 239 242 242 242 236 232 229 228 229 230 231 232 235 240 241 240 233 237 237
260 263 262 251 216 221 127 221 92 96 173 82 357 268 31 12 352 353 1 6 5 3 351 261 237 231 237 240 240 238 233 230 228 230 233 234 238 239 241 245 247 242 236 242
278 225 231 212 214 161 193 261 302 184 77 64 306 65 52 358 4 4 3 6 11 12 13 337 229 225 225 228 230 229 230 228 228 228 232 236 239 241 245 248 251 252 249 249
313 127 345 169 269 173 176 235 7 9 11 64 11 123 112 23 20 17 18 17 19 22 23 31 28 231 238 235 231 229 227 225 230 231 233 237 243 246 248 250 251 254 254 258
181 91 104 66 76 297 144 164 57 111 93 170 92 118 174 6 14 15 17 19 19 19 22 23 30 316 267 243 244 247 242 235 230 234 239 242 247 249 254 255 255 257 257 256
169 207 15 36 207 56 14 126 165 102 175 153 139 173 52 358 360 11 17 19 18 19 21 23 26 24 336 265 261 259 250 242 245 241 242 247 252 255 258 261 261 262 264 265
175 248 108 299 26 349 95 111 66 99 342 243 211 131 40 359 1 5 15 16 19 23 24 24 28 28 25 45 236 228 235 236 235 240 254 258 264 265 263 262 265 269 269 266
157 110 85 110 107 34 51 77 40 297 143 69 326 125 83 39 31 23 20 22 27 32 36 37 35 34 37 54 102 210 209 219 221 215 225 238 257 264 265 267 267 266 263 264
169 111 132 178 184 147 66 45 69 97 152 186 269 134 145 88 45 20 14 12 16 20 22 24 27 31 35 49 108 120 131 29 317 278 284 279 254 256 271 275 272 268 263 256
88 107 236 263 65 91 132 54 9 283 266 267 269 147 172 30 357 1 359 1 3 7 9 10 12 17 22 26 5 288 286 297 288 250 266 230 264 288 290 283 280 274 268 264
170 112 94 62 85 93 102 71 192 157 124 266 131 153 139 356 338 340 345 348 358 3 3 360 360 359 5 5 6 6 355 342 288 284 259 267 289 285 264 262 269 273 272 268
28 121 132 84 84 115 123 120 103 99 117 105 138 165 129 321 334 347 349 340 338 346 345 341 338 338 343 350 347 348 345 348 344 329 310 299 307 298 291 278 274 273 270 257
79 148 175 147 141 147 204 170 153 126 176 166 215 97 318 316 329 332 326 320 310 324 327 326 324 322 320 324 333 330 326 323 323 330 315 320 319 323 321 316 291 277 273 265
137 126 104 122 170 227 75 185 210 208 185 184 194 185 247 298 302 304 305 300 300 316 317 317 318 316 313 304 306 311 319 318 311 312 320 323 327 326 329 326 324 308 278 268
301 145 116 175 202 53 189 191 181 199 214 202 216 217 265 306 307 301 288 305 304 310 310 309 311 311 309 307 301 294 301 308 314 311 308 312 319 322 328 331 322 320 310 274
93 73 200 159 211 248 87 145 153 160 248 178 205 255 297 319 295 313 318 314 312 312 311 310 307 305 304 304 307 294 287 293 296 299 305 305 316 317 320 321 324 307 323 304
122 69 200 165 221 170 152 144 149 219 72 165 234 277 289 285 290 299 308 310 311 313 316 313 316 309 300 301 303 299 288 281 286 286 289 297 299 318 321 317 325 315 294 309
170 164 162 142 205 241 158 141 213 113 139 172 225 286 295 299 305 311 313 313 315 318 320 314 308 308 307 308 309 301 290 285 282 283 280 286 284 299 321 317 318 333 324 315
202 299 156 225 68 115 165 106 136 140 153 178 278 307 311 312 317 321 324 324 322 324 324 323 315 312 310 311 312 304 296 289 281 279 277 272 278 288 313 326 322 330 322 325
148 153 133 178 160 162 163 146 155 159 156 191 314 322 321 317 323 326 333 329 322 325 327 327 323 319 317 318 319 316 309 299 288 279 274 269 269 266 279 300 325 312 331 322
73 161 151 149 163 171 209 192 179 167 181 294 322 327 326 327 329 335 334 331 327 328 328 329 326 321 315 315 314 317 313 308 296 282 274 267 260 254 255 287 292 315 310 328
192 170 194 232 180 166 167 189 188 186 231 313 331 337 339 340 340 338 334 330 332 333 336 333 328 323 321 327 331 330 326 319 307 292 281 276 256 252 253 273 292 290 295 291
Height
1531 1532 1535 1534 1537 1537 1539 1540 1539 1525 1523 1523 1528 1532 1528 1519 1521 1526 1530 1535 1531 1525 1530 1533 1536 1540 1543 1547 1550 1553 1557 1560 1564 1566 1568 1571 1574 1577 1579 1581 1583 1585 1586 1588
1533 1534 1531 1535 1537 1537 1537 1538 1532 1523 1522 1522 1528 1533 1530 1528 1528 1526 1527 1528 1528 1530 1531 1532 1531 1534 1537 1541 1544 1549 1553 1557 1561 1564 1567 1569 1573 1575 1578 1580 1581 1583 1585 1587
1531 1531 1533 1534 1534 1537 1533 1534 1529 1531 1522 1524 1522 1531 1528 1529 1531 1530 1528 1526 1525 1523 1524 1527 1528 1530 1533 1535 1539 1544 1549 1553 1558 1562 1565 1568 1571 1573 1576 1577 1579 1581 1583 1584
1530 1528 1530 1531 1533 1530 1528 1525 1527 1528 1528 1535 1530 1537 1534 1534 1528 1528 1527 1523 1520 1516 1519 1523 1524 1526 1528 1531 1536 1540 1545 1550 1555 1559 1562 1565 1568 1570 1573 1575 1578 1579 1581 1583
1528 1527 1528 1529 1524 1525 1524 1522 1525 1526 1530 1531 1531 1535 1544 1538 1533 1532 1530 1524 1519 1516 1515 1517 1518 1520 1525 1529 1533 1537 1541 1546 1551 1555 1559 1563 1566 1569 1572 1574 1575 1577 1579 1580
1525 1525 1524 1520 1521 1522 1523 1523 1527 1531 1531 1544 1545 1539 1548 1549 1549 1540 1536 1530 1523 1516 1511 1511 1513 1518 1521 1526 1529 1533 1537 1542 1547 1552 1556 1560 1563 1567 1569 1571 1573 1574 1575 1576
1523 1521 1519 1519 1521 1522 1522 1522 1536 1539 1539 1548 1545 1543 1561 1552 1549 1547 1541 1534 1527 1520 1512 1508 1511 1515 1518 1519 1523 1527 1531 1536 1541 1546 1551 1555 1559 1563 1566 1569 1570 1571 1572 1572
1530 1529 1517 1515 1514 1514 1519 1516 1532 1557 1549 1546 1546 1555 1557 1552 1550 1547 1543 1539 1532 1523 1516 1512 1513 1515 1516 1517 1520 1523 1526 1532 1537 1541 1545 1550 1554 1558 1561 1563 1565 1566 1567 1568
1530 1526 1515 1515 1514 1516 1522 1521 1523 1536 1550 1542 1551 1548 1549 1549 1548 1546 1541 1534 1527 1525 1521 1518 1517 1518 1518 1518 1521 1525 1529 1533 1535 1540 1544 1547 1549 1552 1555 1557 1559 1560 1561 1563
1520 1528 1517 1515 1516 1516 1516 1523 1526 1528 1549 1554 1552 1556 1549 1554 1551 1548 1543 1540 1537 1532 1527 1524 1521 1519 1521 1521 1523 1524 1526 1530 1534 1538 1541 1544 1546 1549 1551 1551 1553 1555 1557 1558
1517 1520 1522 1516 1525 1528 1521 1522 1530 1530 1537 1541 1546 1549 1554 1557 1556 1553 1551 1548 1544 1539 1535 1530 1527 1524 1522 1522 1523 1523 1525 1527 1528 1531 1535 1538 1540 1543 1546 1547 1546 1547 1549 1551
1516 1519 1530 1530 1528 1529 1527 1530 1529 1527 1543 1547 1542 1552 1555 1557 1557 1555 1553 1551 1548 1545 1542 1537 1533 1529 1527 1524 1524 1524 1523 1524 1524 1525 1527 1528 1531 1534 1537 1539 1541 1541 1540 1542
1515 1525 1537 1534 1529 1528 1529 1534 1534 1531 1533 1542 1542 1547 1554 1557 1557 1556 1554 1551 1548 1545 1542 1539 1537 1534 1531 1528 1526 1526 1525 1524 1526 1523 1521 1521 1520 1525 1529 1532 1534 1535 1534 1534
1514 1525 1522 1524 1528 1528 1535 1537 1537 1531 1532 1535 1536 1549 1552 1554 1555 1554 1553 1551 1548 1546 1543 1540 1537 1535 1533 1531 1530 1527 1524 1522 1521 1518 1519 1516 1520 1520 1522 1526 1528 1528 1527 1527
1516 1525 1530 1535 1533 1534 1539 1541 1539 1537 1542 1541 1544 1547 1552 1554 1554 1553 1552 1550 1548 1545 1543 1540 1537 1535 1533 1531 1528 1525 1522 1519 1515 1514 1515 1514 1514 1514 1512 1517 1519 1521 1521 1521
1518 1529 1530 1540 1539 1538 1544 1545 1543 1542 1545 1547 1547 1549 1554 1554 1553 1552 1550 1548 1546 1545 1542 1540 1536 1533 1531 1528 1525 1523 1520 1517 1515 1513 1511 1511 1510 1507 1507 1507 1507 1509 1511 1512
1520 1526 1530 1539 1542 1542 1545 1544 1544 1546 1547 1545 1547 1547 1552 1551 1551 1550 1548 1546 1544 1542 1540 1537 1534 1532 1529 1526 1524 1520 1517 1515 1513 1511 1509 1507 1505 1502 1500 1498 1499 1501 1502 1503
1523 1528 1533 1543 1546 1552 1545 1545 1544 1544 1546 1548 1550 1551 1553 1553 1551 1549 1547 1544 1542 1539 1536 1533 1530 1527 1525 1522 1520 1517 1515 1511 1509 1507 1505 1503 1500 1498 1496 1491 1492 1493 1493 1491
1521 1523 1536 1539 1540 1547 1547 1545 1544 1544 1544 1547 1549 1551 1552 1553 1549 1544 1543 1542 1539 1536 1533 1529 1526 1523 1519 1517 1514 1512 1510 1508 1504 1502 1500 1499 1497 1495 1491 1488 1488 1484 1481 1482
1522 1522 1519 1538 1537 1541 1536 1541 1543 1544 1543 1547 1549 1550 1550 1551 1544 1539 1540 1538 1535 1531 1528 1524 1521 1518 1514 1512 1509 1506 1504 1503 1501 1498 1495 1493 1491 1489 1487 1485 1482 1479 1476 1474
1523 1526 1525 1533 1532 1533 1538 1542 1544 1548 1545 1546 1548 1547 1548 1547 1545 1540 1537 1534 1531 1527 1522 1518 1515 1511 1508 1506 1503 1499 1497 1496 1494 1494 1491 1489 1487 1484 1483 1480 1477 1472 1471 1470
1519 1522 1528 1537 1536 1537 1538 1542 1542 1541 1543 1545 1546 1546 1544 1543 1539 1536 1532 1528 1525 1521 1517 1514 1510 1506 1502 1500 1497 1493 1490 1488 1486 1485 1485 1484 1483 1481 1478 1475 1471 1467 1465 1461
1523 1521 1520 1525 1526 1533 1535 1537 1538 1540 1542 1544 1544 1543 1540 1537 1534 1531 1527 1523 1520 1516 1512 1509 1505 1500 1496 1493 1490 1485 1482 1480 1478 1477 1477 1477 1477 1475 1472 1468 1465 1462 1459 1456
1523 1525 1522 1528 1532 1533 1535 1537 1538 1539 1541 1541 1540 1539 1536 1534 1531 1527 1522 1518 1515 1511 1506 1503 1498 1494 1489 1486 1482 1478 1474 1472 1469 1469 1469 1470 1470 1469 1468 1466 1463 1461 1457 1453
1520 1524 1525 1528 1531 1533 1533 1534 1536 1537 1538 1538 1537 1535 1533 1530 1527 1522 1518 1515 1511 1506 1502 1498 1494 1489 1485 1480 1476 1472 1469 1466 1463 1461 1462 1462 1462 1463 1462 1462 1459 1457 1453 1451
1518 1517 1517 1515 1519 1522 1525 1528 1531 1533 1535 1535 1534 1532 1530 1527 1523 1520 1517 1513 1508 1502 1498 1494 1490 1485 1480 1475 1470 1467 1464 1462 1459 1456 1456 1457 1457 1457 1456 1455 1454 1454 1452 1447